This demonstration page uses our WeatherBlox Daily Observations layout. Learn more.

Left ArrowRight Arrow

34.16533, -84.80231

Hourly Observations for April 5, 2022

Temp ( °F °C ) Dew Point ( °F °C ) Humidity (%) Winds ( mph kmh ) Pressure ( in mb ) Visibility ( mi km ) Precip ( " mm )
12:15 am 00:15 Clear 54 12 45 7 72 72 Calm 29.94 1014 10 16 0.00 0.00
12:35 am 00:35 Clear 54 12 43 6 67 67 Calm 29.94 1014 10 16 0.00 0.00
12:55 am 00:55 Clear 54 12 41 5 63 63 E 3 6 29.95 1014 10 16 0.00 0.00
1:15 am 01:15 Partly Cloudy 52 11 43 6 72 72 Calm 29.96 1014 10 16 0.00 0.00
1:35 am 01:35 Mostly Clear 50 10 43 6 76 76 Calm 29.96 1015 10 16 0.00 0.00
1:55 am 01:55 Clear 48 9 43 6 82 82 E 5 7 29.95 1014 10 16 0.00 0.00
2:15 am 02:15 Mostly Clear 48 9 43 6 82 82 Calm 29.94 1014 10 16 0.00 0.00
2:35 am 02:35 Partly Cloudy 48 9 43 6 82 82 Calm 29.93 1014 10 16 0.00 0.00
2:55 am 02:55 Mostly Clear 50 10 41 5 71 71 Calm 29.93 1014 10 16 0.00 0.00
3:15 am 03:15 Mostly Clear 48 9 43 6 82 82 E 5 7 29.92 1013 10 16 0.00 0.00
3:35 am 03:35 Clear 48 9 43 6 82 82 Calm 29.91 1013 10 16 0.00 0.00
3:55 am 03:55 Clear 48 9 43 6 82 82 E 5 7 29.90 1013 10 16 0.00 0.00
4:15 am 04:15 Mostly Clear 48 9 43 6 82 82 E 6 9 29.89 1012 10 16 0.00 0.00
4:35 am 04:35 Mostly Cloudy 50 10 41 5 71 71 E 5 7 29.89 1012 10 16 0.00 0.00
4:55 am 04:55 Partly Cloudy 48 9 43 6 82 82 E 6 9 29.88 1012 10 16 0.00 0.00
5:15 am 05:15 Mostly Clear 52 11 41 5 67 67 E 7 11 29.86 1011 10 16 0.00 0.00
5:35 am 05:35 Mostly Cloudy 48 9 41 5 76 76 ENE 6 9 29.86 1011 10 16 0.00 0.00
5:55 am 05:55 Cloudy 50 10 41 5 71 71 E 7 11 29.85 1011 10 16 0.00 0.00
6:15 am 06:15 Cloudy 50 10 41 5 71 71 ENE 6 9 29.86 1011 10 16 0.00 0.00
6:35 am 06:35 Cloudy 50 10 43 6 76 76 E 7 11 29.85 1011 10 16 0.00 0.00
6:55 am 06:55 Cloudy 52 11 41 5 67 67 E 6 9 29.85 1011 10 16 0.00 0.00
7:15 am 07:15 Mostly Cloudy 54 12 41 5 63 63 ENE 8 13 29.83 1010 10 16 0.00 0.00
7:35 am 07:35 Mostly Sunny 54 12 41 5 63 63 E 7 11 29.83 1010 10 16 0.00 0.00
7:55 am 07:55 Mostly Sunny 54 12 41 5 63 63 E 7 11 29.83 1010 10 16 0.00 0.00
8:15 am 08:15 Mostly Sunny 54 12 43 6 67 67 Calm 29.82 1010 10 16 0.00 0.00
8:35 am 08:35 Mostly Cloudy with Nearby Thunderstorms 54 12 41 5 63 63 E 3 6 29.85 1011 10 16 0.00 0.00
8:55 am 08:55 Cloudy with Nearby Thunderstorms 54 12 45 7 72 72 Calm 29.86 1011 4 6 0.00 0.00
9:15 am 09:15 Cloudy with Nearby Thunderstorms 52 11 46 8 82 82 ESE 6 9 29.88 1012 3 5 0.00 0.00
9:35 am 09:35 Cloudy with Rain 50 10 48 9 94 94 E 5 7 29.86 1011 2 3 0.00 0.00
9:55 am 09:55 Cloudy with Rain 50 10 48 9 94 94 Calm 29.86 1011 2 3 0.13 3.30
10:15 am 10:15 Cloudy with Nearby Thunderstorms 50 10 48 9 94 94 E 3 6 29.86 1011 2 2 0.00 0.00
10:35 am 10:35 Cloudy with Rain 50 10 48 9 94 94 Calm 29.86 1011 2 3 0.00 0.00
10:55 am 10:55 Cloudy with Heavy Rain 50 10 50 10 100 100 E 5 7 29.83 1010 1 2 0.32 8.13
11:15 am 11:15 Cloudy with Rain 50 10 50 10 100 100 E 5 7 29.82 1010 2 2 0.00 0.00
11:35 am 11:35 Cloudy with Heavy Rain 52 11 52 11 100 100 ESE 7 11 29.83 1010 1 2 0.00 0.00
11:55 am 11:55 Cloudy with Rain 52 11 52 11 100 100 E 9 15 29.80 1009 1 2 0.43 10.92
12:15 pm 12:15 Cloudy with Heavy Rain 52 11 52 11 100 100 E 9 15 29.79 1009 2 2 0.00 0.00
12:35 pm 12:35 Cloudy with Heavy Rain 54 12 52 11 94 94 ESE 13 20 29.75 1008 1 1 0.00 0.00
12:55 pm 12:55 Cloudy with Heavy Rain 54 12 54 12 100 100 ESE 15 24 29.75 1008 1 1 0.51 12.95
1:15 pm 13:15 Cloudy with Heavy Rain 54 12 54 12 100 100 VRB 7 11 29.78 1009 2 2 0.00 0.00
1:35 pm 13:35 Cloudy with Heavy Rain 54 12 54 12 100 100 W 3 6 29.79 1009 1 1 0.00 0.00
1:55 pm 13:55 Mostly Cloudy with Rain 54 12 54 12 100 100 E 13 20 29.71 1006 2 3 0.55 13.97
2:15 pm 14:15 Cloudy with Light Rain 55 13 54 12 94 94 ESE 9 15 29.67 1005 5 8 0.00 0.00
2:35 pm 14:35 Mostly Cloudy with Light Rain 55 13 54 12 94 94 VRB 7 11 29.70 1006 10 16 0.00 0.00
2:55 pm 14:55 Mostly Cloudy with Light Rain 55 13 54 12 94 94 ESE 8 13 29.71 1006 8 13 0.06 1.52
3:15 pm 15:15 Partly Cloudy with Light Rain 55 13 55 13 100 100 ESE 12 19 29.60 1002 10 16 0.00 0.00
3:35 pm 15:35 Partly Cloudy 59 15 57 14 94 94 SSE 12 19 29.61 1003 10 16 0.00 0.00
3:55 pm 15:55 Partly Cloudy 63 17 59 15 88 88 SSE 13 20 29.60 1002 10 16 0.02 0.51
4:15 pm 16:15 Mostly Cloudy 64 18 61 16 88 88 SSE 14 22 29.61 1003 10 16 0.00 0.00
4:35 pm 16:35 Partly Cloudy 64 18 61 16 88 88 S 9 15 29.60 1002 10 16 0.00 0.00
4:55 pm 16:55 Mostly Sunny 66 19 61 16 83 83 Calm 29.61 1003 10 16 0.00 0.00
5:15 pm 17:15 Mostly Cloudy 66 19 61 16 83 83 SSW 8 13 29.61 1003 10 16 0.00 0.00
5:35 pm 17:35 Cloudy 66 19 61 16 83 83 SSW 8 13 29.61 1003 10 16 0.00 0.00
5:55 pm 17:55 Mostly Cloudy 68 20 61 16 78 78 SSW 8 13 29.60 1002 10 16 0.00 0.00
6:15 pm 18:15 Partly Cloudy 68 20 61 16 78 78 SSW 8 13 29.60 1002 10 16 0.00 0.00
6:35 pm 18:35 Partly Cloudy 68 20 61 16 78 78 SSW 7 11 29.61 1003 10 16 0.00 0.00
6:55 pm 18:55 Mostly Cloudy 68 20 61 16 78 78 VRB 6 9 29.62 1003 10 16 0.00 0.00
7:15 pm 19:15 Mostly Cloudy 68 20 59 15 73 73 SW 8 13 29.63 1003 10 16 0.00 0.00
7:35 pm 19:35 Partly Cloudy 68 20 59 15 73 73 SW 7 11 29.64 1004 10 16 0.00 0.00
7:55 pm 19:55 Mostly Sunny 66 19 59 15 78 78 WSW 5 7 29.65 1004 10 16 0.00 0.00
8:15 pm 20:15 Partly Cloudy 66 19 59 15 78 78 SW 6 9 29.66 1004 10 16 0.00 0.00
8:35 pm 20:35 Partly Cloudy 64 18 59 15 83 83 VRB 3 6 29.67 1005 10 16 0.00 0.00
8:55 pm 20:55 Partly Cloudy 64 18 59 15 83 83 Calm 29.69 1005 10 16 0.00 0.00
9:15 pm 21:15 Partly Cloudy 63 17 59 15 88 88 Calm 29.69 1005 10 16 0.00 0.00
9:35 pm 21:35 Mostly Cloudy 63 17 59 15 88 88 VRB 3 6 29.71 1006 10 16 0.00 0.00
9:55 pm 21:55 Partly Cloudy 63 17 59 15 88 88 SSW 3 6 29.71 1006 10 16 0.00 0.00
10:15 pm 22:15 Partly Cloudy 63 17 59 15 88 88 Calm 29.72 1006 10 16 0.00 0.00
10:35 pm 22:35 Partly Cloudy 63 17 59 15 88 88 Calm 29.73 1007 10 16 0.00 0.00
10:55 pm 22:55 Partly Cloudy 61 16 59 15 94 94 Calm 29.73 1007 10 16 0.00 0.00
11:15 pm 23:15 Mostly Cloudy 59 15 57 14 94 94 Calm 29.75 1007 10 16 0.00 0.00
11:35 pm 23:35 Mostly Cloudy 57 14 55 13 94 94 Calm 29.75 1007 10 16 0.00 0.00
11:55 pm 23:55 Cloudy 57 14 55 13 94 94 Calm 29.76 1008 8 13 0.00 0.00

Powered by AerisWeather